Location: Jetmore Motorplex
(37.9889°N, 99.8876°W)
Time: 15:17:06
(UTC+00:00)

STARLINK-24 - Pass Details

Date: 17 February 2020
Orbit: 527 x 529 km, 53.0° (Epoch: 07 April)

Event Time Altitude Azimuth Distance (km) Brightness Sun altitude
Rises 01:27:41 0° 215° (SW) 2,647 7.7 -14.1°
Reaches altitude 10° 01:29:55 10° 211° (SSW) 1,762 6.7 -14.6°
Maximum altitude 01:33:49 53° 134° (SE) 652 3.7 -15.3°
Enters shadow 01:35:31 30° 72° (ENE) 973 4.3 -15.7°
